小惑星ファエトン

(3200) Phaethon (2006)

English version
Home page
Updated on April 21, 2007

---------------------------------------------------------------------

・ プロフィール

・ 軌道要素

The following orbital elements are taken from MPO104057

Epoch 2007 Apr. 10.0 TT = JDT 2454200.5                 MPC
M 168.33240              (2000.0)            P               Q
n   0.68755539     Peri.  322.01320     -0.63135273     +0.67806049
a   1.2713475      Node   265.39593     -0.58637572     -0.73498417
e   0.8900252      Incl.   22.18218     -0.50750098     +0.00567788
P   1.43           H   14.6           G   0.15           U   0
From 1515 observations at 20 oppositions, 1983-2006, mean residual 0".54.

・ 星図

・ 光度変化

        H = 14.3  G = 0.15

---------------------------------------------------------------------

軌道要素はMPCのEphemerides and Orbital Elementsに掲載されたものです。
星図は StellaNavigator Ver.2.0 for Windows (アストロアーツ 編著 / アスキー出版局刊) で作成したものです。
光度グラフはComet for Windowsで作成したものです。

---------------------------------------------------------------------

Copyright(C) Seiichi Yoshida (comet@aerith.net). All rights reserved.